When you browse on this site, cookies collect data to enhance your experience and personalize the content and advertising you see.
Visit our Privacy Policy to learn more. By continuing to use the site, you agree to this use of cookies and data.
  • In Portugal
  • List of Countries
  • For 7 days
  • Water Temperature
  • Satellite Maps
  • Weather Map
  • Weather Widgets
  • user-avatar
    Login

    Hourly Weather Verhnee Stepnoe

    Today, 24 May, Friday

    Time Temperature Precipitation Wind Pressure Humidity
    00:00 +13°C° 0.2 mm 3 mps 741 mmHg 89%
    01:00 +13°C° 0.4 mm 3 mps 741 mmHg 91%
    02:00 +14°C° 0.4 mm 2 mps 741 mmHg 94%
    03:00 +13°C° 0 mm 1 mps 741 mmHg 96%
    04:00 +12°C° 0.6 mm 3 mps 742 mmHg 95%
    05:00 +12°C° 0.6 mm 4 mps 742 mmHg 94%
    06:00 +11°C° 0.6 mm 6 mps 742 mmHg 93%
    07:00 +10°C° 0 mm 6 mps 743 mmHg 90%
    08:00 +9°C° 0 mm 6 mps 744 mmHg 87%
    09:00 +9°C° 0 mm 6 mps 744 mmHg 84%
    10:00 +9°C° 0 mm 6 mps 745 mmHg 78%
    11:00 +10°C° 0 mm 6 mps 746 mmHg 73%
    12:00 +11°C° 0 mm 6 mps 746 mmHg 68%
    13:00 +11°C° 0 mm 6 mps 747 mmHg 63%
    14:00 +11°C° 0 mm 6 mps 747 mmHg 59%
    15:00 +11°C° 0 mm 6 mps 748 mmHg 55%
    16:00 +11°C° 0 mm 6 mps 748 mmHg 57%
    17:00 +10°C° 0 mm 5 mps 749 mmHg 59%
    18:00 +10°C° 0 mm 5 mps 749 mmHg 61%
    19:00 +8°C° 0 mm 4 mps 750 mmHg 64%
    20:00 +8°C° 0 mm 3 mps 751 mmHg 67%
    21:00 +7°C° 0 mm 3 mps 751 mmHg 70%
    22:00 +5°C° 0 mm 3 mps 752 mmHg 70%
    23:00 +5°C° 0 mm 2 mps 752 mmHg 70%

    Tomorrow, 25 May, Saturday

    Time Temperature Precipitation Wind Pressure Humidity
    00:00 +5°C° 0 mm 2 mps 753 mmHg 71%
    01:00 +4°C° 0 mm 2 mps 753 mmHg 70%
    02:00 +4°C° 0 mm 2 mps 754 mmHg 70%
    03:00 +5°C° 0 mm 1 mps 754 mmHg 70%
    04:00 +6°C° 0 mm 1 mps 755 mmHg 67%
    05:00 +7°C° 0 mm 1 mps 755 mmHg 64%
    06:00 +8°C° 0 mm 1 mps 755 mmHg 61%
    07:00 +9°C° 0 mm 1 mps 756 mmHg 55%
    08:00 +9°C° 0 mm 2 mps 756 mmHg 50%
    09:00 +10°C° 0 mm 2 mps 756 mmHg 44%
    10:00 +12°C° 0 mm 2 mps 756 mmHg 43%
    11:00 +13°C° 0 mm 2 mps 756 mmHg 42%
    12:00 +14°C° 0 mm 1 mps 756 mmHg 41%
    13:00 +14°C° 0 mm 2 mps 756 mmHg 41%
    14:00 +15°C° 0 mm 2 mps 755 mmHg 41%
    15:00 +15°C° 0 mm 2 mps 755 mmHg 41%
    16:00 +15°C° 0 mm 2 mps 755 mmHg 47%
    17:00 +15°C° 0 mm 2 mps 754 mmHg 52%
    18:00 +14°C° 0 mm 2 mps 754 mmHg 58%
    19:00 +13°C° 0 mm 2 mps 754 mmHg 60%
    20:00 +10°C° 0 mm 2 mps 754 mmHg 62%
    21:00 +9°C° 0 mm 2 mps 754 mmHg 64%
    22:00 +8°C° 0 mm 3 mps 754 mmHg 65%
    23:00 +8°C° 0 mm 3 mps 754 mmHg 66%

    Day after tomorrow, 26 May, Sunday

    Time Temperature Precipitation Wind Pressure Humidity
    00:00 +7°C° 0 mm 3 mps 754 mmHg 68%
    01:00 +7°C° 0 mm 3 mps 754 mmHg 68%
    02:00 +7°C° 0 mm 3 mps 754 mmHg 68%
    03:00 +6°C° 0 mm 4 mps 754 mmHg 68%
    04:00 +7°C° 0 mm 4 mps 754 mmHg 67%
    05:00 +8°C° 0 mm 5 mps 754 mmHg 66%
    06:00 +9°C° 0 mm 6 mps 753 mmHg 65%
    07:00 +10°C° 0 mm 6 mps 753 mmHg 62%
    08:00 +13°C° 0 mm 6 mps 753 mmHg 58%
    09:00 +15°C° 0 mm 6 mps 752 mmHg 55%
    10:00 +16°C° 0 mm 6 mps 752 mmHg 53%
    11:00 +18°C° 0 mm 7 mps 751 mmHg 51%
    12:00 +20°C° 0 mm 7 mps 751 mmHg 49%
    13:00 +21°C° 0 mm 6 mps 751 mmHg 48%
    14:00 +21°C° 0 mm 6 mps 750 mmHg 48%
    15:00 +22°C° 0 mm 6 mps 750 mmHg 47%
    16:00 +21°C° 0 mm 5 mps 750 mmHg 53%
    17:00 +21°C° 0 mm 4 mps 749 mmHg 58%
    18:00 +20°C° 0 mm 4 mps 749 mmHg 64%
    19:00 +19°C° 0 mm 3 mps 749 mmHg 67%
    20:00 +18°C° 0 mm 3 mps 748 mmHg 70%
    21:00 +17°C° 0 mm 3 mps 748 mmHg 72%
    22:00 +17°C° 0.1 mm 4 mps 748 mmHg 73%
    23:00 +16°C° 0.1 mm 5 mps 747 mmHg 74%

    27 May, Monday

    Time Temperature Precipitation Wind Pressure Humidity
    00:00 +16°C° 0.1 mm 6 mps 747 mmHg 75%
    01:00 +16°C° 0 mm 5 mps 747 mmHg 78%
    02:00 +15°C° 0 mm 5 mps 746 mmHg 81%
    03:00 +14°C° 0 mm 5 mps 746 mmHg 84%
    04:00 +15°C° 0.6 mm 5 mps 746 mmHg 85%
    05:00 +15°C° 0.6 mm 5 mps 746 mmHg 86%
    06:00 +15°C° 0.6 mm 6 mps 745 mmHg 87%
    07:00 +16°C° 0.6 mm 6 mps 745 mmHg 84%
    08:00 +17°C° 0.6 mm 6 mps 745 mmHg 82%
    09:00 +18°C° 0.6 mm 7 mps 745 mmHg 79%
    10:00 +20°C° 0.5 mm 7 mps 745 mmHg 79%
    11:00 +20°C° 0.5 mm 7 mps 745 mmHg 78%
    12:00 +21°C° 0.5 mm 6 mps 745 mmHg 78%
    13:00 +21°C° 0.2 mm 6 mps 745 mmHg 75%
    14:00 +22°C° 0.2 mm 6 mps 746 mmHg 72%
    15:00 +23°C° 0.2 mm 6 mps 746 mmHg 68%
    16:00 +22°C° 0.1 mm 6 mps 746 mmHg 72%
    17:00 +22°C° 0.1 mm 5 mps 746 mmHg 75%
    18:00 +21°C° 0.1 mm 4 mps 747 mmHg 79%
    19:00 +20°C° 0.2 mm 3 mps 747 mmHg 83%
    20:00 +18°C° 0.2 mm 3 mps 748 mmHg 88%
    21:00 +17°C° 0.2 mm 3 mps 749 mmHg 93%
    22:00 +17°C° 0 mm 2 mps 749 mmHg 93%
    23:00 +16°C° 0 mm 2 mps 749 mmHg 93%

    28 May, Tuesday

    Time Temperature Precipitation Wind Pressure Humidity
    00:00 +15°C° 0 mm 2 mps 750 mmHg 93%
    01:00 +15°C° 0 mm 2 mps 750 mmHg 93%
    02:00 +14°C° 0 mm 2 mps 750 mmHg 93%
    03:00 +14°C° 0 mm 2 mps 751 mmHg 92%
    04:00 +15°C° 0 mm 2 mps 751 mmHg 89%
    05:00 +15°C° 0 mm 2 mps 752 mmHg 86%
    06:00 +16°C° 0 mm 2 mps 752 mmHg 83%
    07:00 +18°C° 0 mm 2 mps 752 mmHg 76%
    08:00 +19°C° 0 mm 2 mps 753 mmHg 69%
    09:00 +21°C° 0 mm 2 mps 753 mmHg 62%
    10:00 +23°C° 0 mm 2 mps 753 mmHg 57%
    11:00 +23°C° 0 mm 2 mps 753 mmHg 53%
    12:00 +24°C° 0 mm 3 mps 753 mmHg 48%
    13:00 +24°C° 0 mm 3 mps 753 mmHg 48%
    14:00 +25°C° 0 mm 3 mps 753 mmHg 48%
    15:00 +25°C° 0 mm 3 mps 753 mmHg 48%
    16:00 +24°C° 0 mm 2 mps 753 mmHg 53%
    17:00 +24°C° 0 mm 2 mps 753 mmHg 58%
    18:00 +23°C° 0 mm 2 mps 753 mmHg 64%
    19:00 +20°C° 0 mm 2 mps 754 mmHg 67%
    20:00 +20°C° 0 mm 1 mps 754 mmHg 70%
    21:00 +18°C° 0 mm 1 mps 754 mmHg 73%
    22:00 +18°C° 0 mm 1 mps 754 mmHg 73%
    23:00 +16°C° 0 mm 1 mps 754 mmHg 73%

    29 May, Wednesday

    Time Temperature Precipitation Wind Pressure Humidity
    00:00 +16°C° 0 mm 1 mps 754 mmHg 74%
    01:00 +16°C° 0 mm 1 mps 755 mmHg 74%
    02:00 +15°C° 0 mm 1 mps 755 mmHg 74%
    03:00 +15°C° 0 mm 2 mps 755 mmHg 75%
    04:00 +16°C° 0 mm 2 mps 755 mmHg 74%
    05:00 +17°C° 0 mm 2 mps 755 mmHg 74%
    06:00 +18°C° 0 mm 2 mps 755 mmHg 73%
    07:00 +20°C° 0 mm 2 mps 755 mmHg 70%
    08:00 +23°C° 0 mm 2 mps 755 mmHg 67%
    09:00 +24°C° 0 mm 3 mps 755 mmHg 64%
    10:00 +25°C° 0 mm 3 mps 755 mmHg 62%
    11:00 +26°C° 0 mm 3 mps 755 mmHg 59%
    12:00 +27°C° 0 mm 3 mps 755 mmHg 57%
    13:00 +28°C° 0 mm 4 mps 755 mmHg 57%
    14:00 +28°C° 0 mm 4 mps 754 mmHg 57%
    15:00 +28°C° 0 mm 4 mps 754 mmHg 58%
    16:00 +28°C° 0 mm 3 mps 754 mmHg 62%
    17:00 +27°C° 0 mm 3 mps 754 mmHg 66%
    18:00 +27°C° 0 mm 2 mps 754 mmHg 70%
    19:00 +25°C° 0 mm 2 mps 754 mmHg 74%
    20:00 +24°C° 0 mm 2 mps 754 mmHg 78%
    21:00 +21°C° 0 mm 2 mps 754 mmHg 83%
    22:00 +22°C° 0.1 mm 1 mps 754 mmHg 85%
    23:00 +21°C° 0.1 mm 1 mps 754 mmHg 87%
    Show more